Stations météo

réclame
Mon MeteoGroup
Cap Corse, France (7785): Température de l'air & dewpoint: 12.06.2018 13:00:00 - 18.06.2018 13:00:00 (CEST)Cap Corse, France (7785): Vitesse du vent & gusts: 12.06.2018 13:00:00 - 18.06.2018 13:00:00 (CEST)Cap Corse, France (7785): Direction du vent: 12.06.2018 13:00:00 - 18.06.2018 13:00:00 (CEST)Cap Corse, France (7785): reduced air pressure: 12.06.2018 13:00:00 - 18.06.2018 13:00:00 (CEST)Cap Corse, France (7785): visibility: 12.06.2018 13:00:00 - 18.06.2018 13:00:00 (CEST)Cap Corse, France (7785): Quantités de précipitations: 12.06.2018 13:00:00 - 18.06.2018 13:00:00 (CEST)
Date & Time tt [°C] td [°C] ff [km/h] ff [knt] fx [km/h] fx [knt] dd ppp [hPa] vv [km] rr [mm]
18.06.2018 13:00:00 24,2 19,3 5 3 13 7 NNE 1016,5 - 0,0
18.06.2018 12:00:00 24,7 19,3 5 3 13 7 WNW 1016,5 - 0,0
18.06.2018 11:00:00 23,9 18,8 11 6 20 11 W 1016,2 12 0,0
18.06.2018 10:00:00 24,0 19,1 15 8 22 12 W 1016,1 - 0,0
18.06.2018 09:00:00 23,3 18,8 18 10 23 12 W 1015,5 - 0,0
18.06.2018 08:00:00 22,2 18,8 15 8 21 11 W 1015,4 12 -
18.06.2018 07:00:00 20,7 18,5 13 7 18 10 W 1015,2 - 0,0
18.06.2018 06:00:00 21,0 18,8 13 7 21 11 W 1015,0 - 0,0
18.06.2018 05:00:00 20,4 18,2 15 8 18 10 WSW 1014,4 12 -
18.06.2018 04:00:00 19,6 16,1 9 5 16 9 W 1014,3 - 0,0
18.06.2018 03:00:00 20,1 14,5 5 3 29 16 E 1014,4 - 0,0
18.06.2018 02:00:00 20,9 17,7 22 12 39 21 W 1014,6 - -
18.06.2018 01:00:00 21,8 16,7 24 13 48 26 SW 1014,7 - 0,0
18.06.2018 00:00:00 21,2 18,4 24 13 55 30 WSW 1014,6 - 0,0
17.06.2018 23:00:00 21,1 18,1 15 8 54 29 WSW 1014,6 - -
17.06.2018 22:00:00 21,4 18,0 26 14 57 31 WSW 1014,4 - 0,0
17.06.2018 21:00:00 21,5 17,5 24 13 54 29 WSW 1014,0 - 0,0
17.06.2018 20:00:00 22,7 18,0 31 17 50 27 WSW 1013,9 15 -
17.06.2018 19:00:00 23,8 18,4 29 16 52 28 W 1013,8 - 0,0
17.06.2018 18:00:00 24,0 18,6 31 17 42 23 W 1013,8 - 0,0
17.06.2018 17:00:00 24,7 18,2 28 15 37 20 WSW 1014,1 15 -
17.06.2018 16:00:00 24,8 18,7 24 13 39 21 W 1014,5 - 0,0
17.06.2018 15:00:00 25,0 19,1 21 11 26 14 W 1014,9 - 0,0
17.06.2018 14:00:00 24,6 18,8 16 9 22 12 W 1015,1 - -
17.06.2018 13:00:00 24,9 18,1 16 9 22 12 W 1015,4 - 0,0
17.06.2018 12:00:00 25,2 14,9 16 9 26 14 W 1015,3 - 0,0
17.06.2018 11:00:00 24,7 13,3 21 11 34 18 W 1014,9 16 -
17.06.2018 10:00:00 24,0 18,6 13 7 42 23 W 1014,7 - 0,0
17.06.2018 09:00:00 22,9 19,1 29 16 46 25 WSW 1014,5 - 0,0
17.06.2018 08:00:00 21,4 18,6 31 17 42 23 W 1014,6 12 -
17.06.2018 07:00:00 21,4 18,8 31 17 42 23 W 1014,0 - 0,0
17.06.2018 06:00:00 20,8 18,0 24 13 46 25 WSW 1013,6 - 0,0
17.06.2018 05:00:00 20,7 18,1 29 16 48 26 WSW 1013,2 - -
17.06.2018 04:00:00 20,6 17,8 29 16 44 24 WSW 1013,3 - 0,0
17.06.2018 03:00:00 20,9 17,5 16 9 46 25 WSW 1013,4 - 0,0
17.06.2018 02:00:00 21,3 16,7 31 17 52 28 WSW 1013,4 - -
17.06.2018 01:00:00 21,5 16,9 24 13 65 35 WSW 1013,5 - 0,0
17.06.2018 00:00:00 21,9 16,8 28 15 52 28 WSW 1013,5 - 0,0
16.06.2018 23:00:00 22,1 16,4 26 14 44 24 SW 1013,1 - -
16.06.2018 22:00:00 22,2 16,0 26 14 46 25 SW 1012,8 - 0,0
16.06.2018 21:00:00 22,4 16,4 22 12 42 23 WSW 1012,4 - 0,0
16.06.2018 20:00:00 23,1 16,6 24 13 41 22 WSW 1012,4 - -
16.06.2018 19:00:00 24,8 15,7 2 1 9 5 NE 1012,2 - 0,0
16.06.2018 18:00:00 24,9 15,8 8 4 11 6 E 1012,0 - 0,0
16.06.2018 17:00:00 25,4 14,8 9 5 15 8 ENE 1012,3 15 -
16.06.2018 16:00:00 25,1 15,7 9 5 16 9 E 1012,4 - 0,0
16.06.2018 15:00:00 25,1 16,5 11 6 18 10 ENE 1012,8 - 0,0
16.06.2018 14:00:00 25,1 17,6 13 7 22 12 NE 1012,9 15 -
16.06.2018 13:00:00 25,1 17,0 15 8 21 11 NE 1013,1 - 0,0
16.06.2018 12:00:00 25,0 17,5 15 8 21 11 NE 1013,2 - 0,0
16.06.2018 11:00:00 24,7 16,4 13 7 21 11 NE 1013,2 - -
16.06.2018 10:00:00 24,6 13,8 11 6 18 10 ENE 1012,8 - 0,0
16.06.2018 09:00:00 23,5 15,5 5 3 13 7 W 1012,9 - 0,0
16.06.2018 08:00:00 23,0 15,3 11 6 15 8 WSW 1012,7 - -
16.06.2018 07:00:00 22,1 14,7 9 5 15 8 WSW 1012,4 - 0,0
16.06.2018 06:00:00 19,8 13,5 15 8 21 11 SW 1012,6 - 0,0
16.06.2018 05:00:00 20,3 14,9 18 10 34 18 SW 1012,4 - -
16.06.2018 04:00:00 21,0 16,0 18 10 41 22 SSW 1012,2 - 0,0
16.06.2018 03:00:00 21,1 16,1 24 13 39 21 SW 1012,3 - 0,0
16.06.2018 02:00:00 21,4 15,2 18 10 44 24 WSW 1012,2 - -
16.06.2018 01:00:00 21,5 14,6 15 8 42 23 W 1012,4 - 0,0
16.06.2018 00:00:00 21,7 14,3 29 16 44 24 SW 1012,2 - 0,0
15.06.2018 23:00:00 21,6 14,3 26 14 46 25 SW 1012,0 - -
15.06.2018 22:00:00 22,3 15,2 21 11 42 23 SW 1011,9 - 0,0
15.06.2018 21:00:00 22,7 12,3 18 10 31 17 W 1011,4 - 0,0
15.06.2018 20:00:00 22,4 16,0 16 9 22 12 W 1011,3 - -
15.06.2018 19:00:00 25,0 15,0 9 5 15 8 WSW 1010,9 - 0,0
15.06.2018 18:00:00 26,1 14,9 5 3 13 7 W 1010,6 - 0,0
15.06.2018 17:00:00 24,7 15,9 7 4 14 8 WNW 1010,8 20 0,0
15.06.2018 16:00:00 24,9 15,8 8 5 13 7 ENE 1011,0 - 0,0
15.06.2018 15:00:00 25,1 15,7 9 5 15 8 ENE 1011,0 - 0,0
15.06.2018 14:00:00 24,9 14,4 11 6 24 13 E 1011,1 20 -
15.06.2018 13:00:00 25,1 13,6 18 10 35 19 E 1011,0 - 0,0
15.06.2018 12:00:00 25,7 13,2 18 10 37 20 E 1010,8 - 0,0
15.06.2018 11:00:00 24,5 14,6 19 10 29 16 E 1010,9 20 0,0
15.06.2018 10:00:00 24,2 16,5 16 9 31 17 E 1010,9 - 0,0
15.06.2018 09:00:00 24,4 15,3 16 9 25 14 E 1010,7 - 0,0
15.06.2018 08:00:00 23,5 16,3 11 6 16 9 E 1010,4 20 -
15.06.2018 07:00:00 22,5 14,9 9 5 13 7 E 1010,3 - 0,0
15.06.2018 06:00:00 20,1 13,8 8 4 13 7 E 1010,2 - 0,0
15.06.2018 05:00:00 19,7 12,9 6 3 11 6 E 1010,0 15 0,0
15.06.2018 04:00:00 20,3 12,5 9 5 30 16 SW 1009,9 - 0,0
15.06.2018 03:00:00 20,9 14,3 18 10 29 16 SW 1009,9 - 0,0
15.06.2018 02:00:00 20,9 14,3 15 8 28 15 WSW 1010,2 - -
15.06.2018 01:00:00 20,9 15,9 14 8 37 20 WSW 1010,3 - 0,0
15.06.2018 00:00:00 21,3 15,6 18 10 35 19 WSW 1010,2 - 0,0
14.06.2018 23:00:00 21,1 16,5 23 13 36 20 WSW 1010,1 - 0,0
14.06.2018 22:00:00 21,3 17,1 16 9 34 18 WSW 1009,6 - 0,0
14.06.2018 21:00:00 21,9 16,4 18 10 29 16 W 1008,9 - 0,0
14.06.2018 20:00:00 23,2 16,5 15 8 24 13 W 1008,6 - -
14.06.2018 19:00:00 23,4 16,9 11 6 21 11 W 1008,2 - 0,0
14.06.2018 18:00:00 24,1 16,4 9 5 21 11 W 1008,2 - 0,0
14.06.2018 17:00:00 24,5 15,1 7 4 15 8 W 1008,2 15 0,0
14.06.2018 16:00:00 23,5 15,3 7 4 16 9 W 1008,2 - 0,0
14.06.2018 15:00:00 23,5 17,5 8 5 17 9 W 1008,5 - 0,0
14.06.2018 14:00:00 23,3 17,3 11 6 16 9 WNW 1008,5 15 -
14.06.2018 13:00:00 23,0 18,1 9 5 16 9 NNW 1008,6 - 0,2
14.06.2018 12:00:00 22,8 18,3 9 5 21 11 W 1008,5 - 0,0
14.06.2018 11:00:00 21,4 17,6 11 6 19 10 W 1008,1 12 0,0
14.06.2018 10:00:00 22,7 18,0 3 2 9 5 WNW 1007,5 - 0,0
14.06.2018 09:00:00 21,3 17,9 5 3 11 6 NW 1007,6 - 0,0
14.06.2018 08:00:00 20,0 17,0 9 5 15 8 WSW 1007,5 12 -
14.06.2018 07:00:00 19,0 16,4 5 3 9 5 W 1007,2 - 0,0
14.06.2018 06:00:00 18,1 15,5 6 3 10 5 W 1006,9 - 0,0
14.06.2018 05:00:00 18,0 15,4 5 3 21 11 WSW 1006,7 12 -
14.06.2018 04:00:00 18,2 15,6 13 7 22 12 WSW 1006,5 - 0,0
14.06.2018 03:00:00 18,0 15,4 9 5 21 11 WSW 1006,6 - 0,0
14.06.2018 02:00:00 18,3 15,7 15 8 24 13 WSW 1006,9 - -
14.06.2018 01:00:00 18,3 15,7 18 10 24 13 SW 1006,6 - 0,0
14.06.2018 00:00:00 18,3 15,7 9 5 21 11 WSW 1006,8 - 0,0
13.06.2018 23:00:00 18,4 15,6 13 7 24 13 WSW 1006,4 - -
13.06.2018 22:00:00 18,5 15,4 9 5 15 8 W 1006,0 - 0,0
13.06.2018 21:00:00 19,7 15,6 9 5 15 8 NW 1005,7 - 0,0
13.06.2018 20:00:00 20,5 15,7 5 3 15 8 NNW 1005,2 15 -
13.06.2018 19:00:00 20,8 16,2 11 6 21 11 N 1005,1 - 0,0
13.06.2018 18:00:00 22,0 16,3 14 8 25 13 NNE 1004,7 - 0,0
13.06.2018 17:00:00 21,5 16,7 13 7 27 14 NE 1005,4 15 0,0
13.06.2018 16:00:00 21,6 16,8 21 11 28 15 ENE 1005,3 - 0,0
13.06.2018 15:00:00 22,1 16,1 16 9 24 13 ENE 1005,0 - 0,0
13.06.2018 14:00:00 23,7 13,6 16 9 28 15 E 1005,5 15 -
13.06.2018 13:00:00 23,7 15,2 7 4 35 19 E 1005,5 - 0,0
13.06.2018 12:00:00 22,5 16,8 24 13 35 19 ESE 1005,9 - 1,0
13.06.2018 11:00:00 21,6 14,5 5 3 21 11 NNE 1006,2 - -
13.06.2018 10:00:00 - - - - - - - - - -
13.06.2018 09:00:00 22,9 13,9 5 3 29 16 SE 1006,4 - 0,0
13.06.2018 08:00:00 22,9 13,1 15 8 28 15 WSW 1006,4 - -
13.06.2018 07:00:00 20,6 11,8 11 6 35 19 SSW 1006,4 - 0,0
13.06.2018 06:00:00 20,0 11,7 22 12 52 28 SSW 1006,3 - 0,0
13.06.2018 05:00:00 20,4 11,1 22 12 59 32 SW 1006,3 15 -
13.06.2018 04:00:00 20,5 13,0 24 13 52 28 WSW 1007,1 - 0,0
13.06.2018 03:00:00 20,8 13,7 26 14 55 30 SW 1007,6 - 0,0
13.06.2018 02:00:00 20,9 14,3 29 16 85 46 WSW 1007,8 - -
13.06.2018 01:00:00 20,8 14,7 46 25 80 43 WSW 1007,9 - 0,0
13.06.2018 00:00:00 20,8 15,6 59 32 91 49 W 1008,0 - 0,0
12.06.2018 23:00:00 20,5 15,7 39 21 87 47 WSW 1008,9 - -
12.06.2018 22:00:00 20,6 16,0 56 31 85 46 WSW 1008,7 - 0,0
12.06.2018 21:00:00 20,6 16,8 63 34 91 49 W 1007,5 - 0,0
12.06.2018 20:00:00 21,2 17,0 55 30 96 52 W 1007,3 - -
12.06.2018 19:00:00 21,5 16,9 59 32 100 54 WSW 1007,6 - 0,0
12.06.2018 18:00:00 22,1 17,9 55 30 87 47 WSW 1007,9 - 0,0
12.06.2018 17:00:00 21,4 17,8 52 28 70 38 W 1008,5 12 -
12.06.2018 16:00:00 21,8 18,4 40 22 63 34 W 1008,8 - 0,0
12.06.2018 15:00:00 23,5 19,0 34 18 63 34 W 1009,3 - 0,0
12.06.2018 14:00:00 24,2 18,8 30 16 53 28 WSW 1009,5 12 0,0
12.06.2018 13:00:00 22,9 18,2 31 17 61 33 WSW 1009,6 - 0,0

tt = Température de l'air
td = dewpoint
ff = Vitesse du vent
fx = gusts
dd = Direction du vent
ppp = reduced air pressure
vv = visibility
rr = Quantités de précipitations

stations d'obs. à proximité